Ludi Tance 1-01A

operational
NORAD ID: 51284 Int'l Des: 2022-007 Owner: SAST Country: CN
LEOCIRCULARRETROGRADESSO

About Ludi Tance 1-01A

Description loading...

Live Position

Loading 3D Globe...

Upcoming Passes

Altitude History

Altitude vs Time

uPlot chart will show altitude changes over time

Two-Line Element Set

1 51284U 22007A 26061.15589947 .00000897 00000-0 10261-3 0 9991
2 51284 97.8115 70.1027 0001607 91.2517 268.8884 14.88410771222550
Epoch: Mar 2, 2026 • Age: 25 hours

Current Status

Altitude 614.1 km
Velocity 7.56 km/s
Sub-Earth Point 71.01°N, 128.83°W
Launch Date Jan 25, 2022
Age 4.1 years
Type other

Technical Details

Classification Payload
Mass 3200.00 kg
Dry Mass 2500.00 kg
Total Mass 3200.00 kg
Length 2.00 m
Diameter 2.00 m
Span 10.00 m
Shape Box + 4 Pan
Manufacturer SAST
Bus Type LSAR
Phase Status In Orbit
Owner/State SAST/CN

Large Constellations

Loading constellations...